INTELSAT 19 (IS-19)

Last updated on Sept. 20, 2020, 5:45 a.m. UTC

1 38356U 12030A   20263.62510749 -.00000071  00000-0  00000-0 0  9997
2 38356   0.0319 110.0701 0002930  67.9174 212.0450  1.00271426 29433
UTC
Height (km)
Latitude
Longitude
Inclination
Orbital Period
UTC large
Height (km)
Speed (km/s)
/
Latitude / Longitude
Inclination (degrees)
Orbital Period (minutes)
Azimuth
Elevation
Range (km)
Doppler Factor
iOS Compass Heading
iOS Angle

Next 30 passes for location: Hong Kong

Rise time Rise Azimuth (degrees) Set time Set Azimuth (degrees) Duration Max altitude (degrees)

No matching passes for this satellites